Flag for Guatemala Weather past 2 weeks in Guatemala, Guatemala

Now
75 °F

Partly sunny.


Feels Like: 78 °F
Forecast: 63 / 75 °F
Wind: 9 mph from Northeast

Location: Guatemala Aeropuertola Aurora

Current Time: Sep 3, 2015 at 12:05:20 PM

Latest Report: Sep 3, 2015 at 11:00 AM


Visibility: N/A

Pressure: 30.27 "Hg (25.38 "Hg at 1533m altitude)

Humidity: 57%

Dew point: 59 °F

Location of GuatemalaLocation

Historic Weather in Guatemala — Graph

°F

Guatemala temperature yesterday

Maximum temperature yesterday: 77 °F (at 11:00 AM)
Minimum temperature yesterday: 61 °F (at 3:00 AM)
Average temperature yesterday: 66 °F

Past Weeks' High & Low Weather Summary

 TemperatureHumidityPressure
High82 °F (Aug 21, 3:00 PM)100% (Aug 31, 4:00 AM)30.36 "Hg (Aug 31, 4:00 AM)
Low59 °F (Aug 24, 6:00 AM)30% (Aug 22, 4:00 PM)30.15 "Hg (Aug 28, 4:00 PM)
Average69 °F76%30.27 "Hg
* Reported Aug 19 11:00 AM — Sep 3 11:00 AM, Guatemala, Weather by CustomWeather, © 2015

Note: Actual official high and low records may vary slightly from our data, if they occured in-between our weather recording intervals... More about our weather records

Advertising

Guatemala weather history for previous 24 hours

 ConditionsComfort  
Time TempWeatherWind HumidityBarometerVisibility
11:00 AM
Thu, Sep 3
75 °FPartly sunny.9 mph57%30.27 "HgN/A
10:00 AM73 °FPartly sunny.9 mph61%30.30 "HgN/A
9:00 AM70 °FSunny.12 mph64%30.30 "Hg10 mi
8:00 AM68 °FSunny.5 mph73%30.27 "Hg10 mi
7:00 AM64 °FSunny.No wind83%30.27 "Hg10 mi
6:00 AM61 °FSunny.5 mph94%30.24 "Hg10 mi
5:00 AM61 °FClear.7 mph94%30.24 "Hg10 mi
4:00 AM61 °FClear.9 mph100%30.24 "Hg10 mi
3:00 AM63 °FPassing clouds.12 mph94%30.24 "HgN/A
2:00 AM63 °FPartly cloudy.No wind94%30.27 "HgN/A
1:00 AM63 °FDrizzle. Fog.3 mph94%30.30 "Hg3 mi
12:12 AMN/ARain.No windN/AN/A2 mi
12:00 AM63 °FRain. Mostly cloudy.7 mph94%30.33 "Hg3 mi
11:00 PM
Wed, Sep 2
63 °FPassing clouds.No wind94%30.33 "Hg5 mi
10:12 PMN/AThunderstorms.5 mphN/AN/A3 mi
9:35 PMN/AThunderstorms.7 mphN/AN/A2 mi
9:12 PMN/AFog.No windN/AN/A2 mi
9:00 PM66 °FDrizzle. Fog.No wind94%30.30 "Hg2 mi
8:00 PM66 °FFog.No wind94%30.30 "Hg3 mi
7:00 PM66 °FFog.No wind94%30.27 "Hg3 mi
6:00 PM68 °FBroken clouds.No wind94%30.24 "HgN/A
5:00 PM70 °FScattered clouds.5 mph88%30.24 "HgN/A
4:10 PMN/ABroken clouds.5 mphN/AN/AN/A
3:00 PM66 °FThunderstorms. Broken clouds.5 mph94%30.27 "Hg4 mi
2:00 PM66 °FThunderstorms. Broken clouds.5 mph88%30.27 "Hg5 mi
1:35 PMN/AThunderstorms.5 mphN/AN/A5 mi
1:00 PM64 °FDrizzle. Broken clouds.7 mph94%30.30 "HgN/A
12:00 PM75 °FThunderstorms. Scattered clouds.7 mph65%30.33 "Hg4 mi
Weather by CustomWeather, © 2015

See weather overviewHow to use our weather pages